Погода Буй

Погода Буй : погода сейчас, прогноз погоды и архив. Всё, что Вы хотите узнать о погоде Буй!

Хотите узнать прогноз погоды Буй? Тогда Вам сюда: Погода Буй

Поиск расширенной информации на нашем сайте:

Другие новости

Новости СМИ2

Главная страница сайта

Новости сайта

02.10.2013

Напоминаем, что на нашем новом сайте вы можете получить высокодетализированные прогнозы погоды по пунктам России, СНГ и мира (включающие важные для авиации метеовеличины, такие как направление и скорость ветра, видимость, явления погоды, количество и форма облачности, нижняя и верхняя граница облачности), а также ознакомиться с разнообразными материалами по авиационной метеорологии и подборкой полезных ссылок на эту тему.

Сайт Метеоцентр.Азия посвящён разработке технологий оптимизации авиаметеорологического обслуживания, включая проектирование и перспективное создание нескольких автоматизированных авиаметеорологических систем:
- система выпуска высокодетальных прогностических карт явлений погоды для нижнего воздушного пространства по России и ближнему зарубежью;
- система верификации прогнозов TAF (выпускаемых синоптиками официальных АМСГ РФ и ближнего зарубежья) и AUTOTAF (выпускаемых сайтом Метеоцентр.Азия) - выявление ошибок, онлайн-сопоставление с фактической погодой METAR, автоматическое внесение коррективов в прогнозы при резком отклонении фактической погоды от прогноза, подсчёт оправдываемости прогнозов по элементам и в целом;
- система обработки, анализа и отображения авиаметеорологической информации для применения провайдерами метеорологической информации.


Погода Буй - сегодня

Время (UTC), дата Ветер
(°,м/с) 
Видим.   Явления Облачность Т
(°С)
Тd
(°С)
f(%) Тe
(°С)
Pmin
(гПа)
dP
(гПа)
Po
(мм)
O2
(г/м3)
Тmin Tmax R s Состояние
почвы
18 22.05.17 тихо ()   20000 м    6/0 средняя 
[Ac trans]
+6.3 -2.4 54 +6  1012.5  0.6  750  296           
21 22.05.17 тихо ()   20000 м    ясно 
+0.6 -1.3 87 +1  1013.3  0.5  750  302           
00 23.05.17 тихо ()   20000 м    ясно 
-1.5 -1.7 99 -2  1013.2  -0.2  750  304           
03 23.05.17 тихо ()   20000 м    8/0 верхняя 
[Ci fib]
+1.9 -0.3 85 +2  1013.2  0.1  750  300  -1.8        мокрая 
06 23.05.17 190 (Ю) 50000 м    6/0 верхняя 
[Ci fib]
+11.3 -3.6 35 +12  1012.1  -0.6  750  290           
09 23.05.17 210 (ЮЗ) 2{11}  50000 м    9/8 600 м средняя 
[Cu hum|Ac trans]
+13.8 -3.4 30 +14  1010.7  -1.3  749  288           
12 23.05.17 220 (ЮЗ) 50000 м    10/10 600 м кучево-дожд. 
[Cb cap]
+13 -2 35 +13  1009.6  -1.1  748  288           
15 23.05.17 190 (Ю) 50000 м    10/10 600 м кучево-дожд. 
[Cb cap]
+12.5 +1.6 47 +14  1008.7  -1  747  288    +14.5       
18 23.05.17 180 (Ю) 20000 м    8/8 600 м кучево-дожд. 
[Cb cap]
+10.7 +3 59 +12  1008.5  -0.2  747  289           
21 23.05.17 230 (ЮЗ) 20000 м    10/10 300 м кучево-дожд. 
[Cb cap]
+7.7 +3.5 75 +9  1008.2  -0.4  747  292           
00 24.05.17 тихо ()   20000 м    10/10 300 м кучево-дожд. 
[Cb cap]
+7.8 +5.4 85 +8  1008.8  0.6  747  292           
03 24.05.17 тихо ()   50000 м    3/0 2000 м средняя 
[Ac trans]
+10.8 +6.4 74 +11  1009.6  0.9  748  289  +6.8        влажная 
06 24.05.17 050 (СВ) 50000 м    8/0 2000 м средняя, верхняя 
[Ac trans|Ci fib]
+15 +5.5 53 +16  1011.1  1.7  749  285           
09 24.05.17 040 (СВ) 50000 м    8/8 600 м кучево-дожд. 
[Cb cap]
+18.7 +2.3 33 +20  1011.8  0.8  750  282           
12 24.05.17 330 (СЗ) 50000 м    8/8 600 м кучево-дожд. 
[Cb cap]
+20.6 +2.8 31 +21  1012  0.3  750  281           
15 24.05.17 320 (СЗ) 50000 м    4/3 600 м кучево-дожд., верхняя 
[Cb cap|Ci fib]
+18.8 +1.3 31 +20  1012.3  0.2  750  283    +20.7       
18 24.05.17 тихо ()   30000 м    3/0 верхняя 
[Ci fib]
+13.4 +1.7 45 +13  1013.4  0.9  751  288           
21 24.05.17 040 (СВ) 20000 м    ясно 
+7.7 +2.6 70 +9  1014.4  0.7  751  294           
00 25.05.17 тихо ()   20000 м    3/3 2000 м средняя 
[Ac As]
+4.1 +2.9 92 +4  1014.7  0.1  751  298           
03 25.05.17 110 (В) 50000 м    ясно 
+10 -0.3 49 +10  1013.9  -0.5  751  292  +4.1        сухая 
06 25.05.17 090 (В) 50000 м    6/0 верхняя 
[Cc]
+18.1 +1.2 32 +19  1012.4  -1.1  750  283           
09 25.05.17 120 (ЮВ) 50000 м    9/9 600 м кучево-дожд. 
[Cb cap]
+20.4 +6.7 41 +20  1010.8  -1.6  749  280           
12 25.05.17 090 (В) 50000 м  {ливн. осадки}  10/10 300 м кучево-дожд. 
[Cb cap]
+17.5 +10.4 63 +20  1008.5  -2.3  747  281           
15 25.05.17 250 (З) 1{10}  10 км  слаб. ливневой дождь  10/10 300 м кучево-дожд. 
[Cb cap]
+13.9 +13.5 97 +21  1006.3  -2.3  746  283    +20.6     
18 25.05.17 230 (ЮЗ) 18000 м  в посл. час ливневой дождь  6/6 600 м кучево-дожд. 
[Cb cap]
+13.2 +12.4 95 +19  1006.1  -0.3  745  284           
Время (UTC), дата Ветер
(°,м/с) 
Видим.   Явления Облачность Т
(°С)
Тd
(°С)
f(%) Тe
(°С)
Pmin
(гПа)
dP
(гПа)
Po
(мм)
O2
(г/м3)
Тmin Tmax R s Состояние
почвы

Для получения пояснительной информации подведите курсор к названию столбца.

ПОГОДА Буй - архив

Всё, что Вы хотите узнать о погоде Буй - удобно и подробно!

Выберите нужную дату (начиная с 1 января 2015* года) и нажмите кнопку "Найти".
Будут отображены архивные сводки погоды по пункту Буй, начиная с указанной даты.


Отображать данные в формате CSV (для использования в таблицах Excel)


Внимание! Наш архив погоды предназначен исключительно для личного некоммерческого использования в познавательных целях. Если Вам необходимы официальные справки о состоянии погоды (для производственных, юридических, коммерческих и т.п. целей), обращайтесь в органы Росгидромета.

*Примечание: данная дата относится к архиву по метеостанциям СССР (Россия, СНГ, Балтия).
Архив по метеостанциям Зарубежной Европы и Азии (кроме Китая) хранится 10 дней, по другим регионам земного шара (Китай, Африка, Америка, Австралия, Океания) - 1 день.

Буй - район местоположения метеостанции


Название, широта, долгота, высота метеостанции:
Буй 58.5°ш. 41.5°д. 103 м над ур. моря [Российская Федерация]

Дополнительная информация

В oтличие oт бoльшинства пoгoдных сайтoв мы публикуем пoдрoбную метеoинфoрмацию в детальнoм прoфессиoнальнoм фoрмате.

Характеристики температуры и влажнoсти вoздуха измеряются на высoте 2 м в тени вдали oт зданий и деревьев.
Скoрoсть ветра измеряется на высoте 10 м (на урoвне рoста челoвека скoрoсть ветра ниже в 1.5-2 раза). Если метеoстанция нахoдится в гoрoде или в лесу, тo скoрoсть ветра занижена на 2-4 м/с пo сравнению с oткрытым местoм. Скoрoсть ветра над акватoриями крупных рек и oзёр, а также на вершинах хoлмoв на 2-5 м/с выше, чем в oбычных услoвиях.
Атмoсфернoе давление в разных тoчках местнoсти мoжет значительнo oтличаться oт давления на метеoстанции, в зависимoсти oт услoвий рельефа (при пoдъёме на 10 м давление пoнижается примернo на 1 мм рт.ст.).